Time,TemperatureF,DewpointF,PressureIn,WindDirection,WindDirectionDegrees,WindSpeedMPH,WindSpeedGustMPH,Humidity,HourlyPrecipIn,Conditions,Clouds,dailyrainin,SoftwareType,DateUTC
2013-09-17 00:10:00,46.4,41.0,30.25,NE,36,6.0,10.0,82,0.00,,,0.00,weatherlink.com 1.10,2013-09-17 04:10:00,
2013-09-17 00:25:00,45.9,41.0,30.25,NE,49,4.0,7.0,83,0.00,,,0.00,weatherlink.com 1.10,2013-09-17 04:25:00,
2013-09-17 00:40:00,45.3,40.0,30.26,NNE,30,3.0,8.0,83,0.00,,,0.00,weatherlink.com 1.10,2013-09-17 04:40:00,
2013-09-17 00:55:00,44.8,40.0,30.27,NNE,17,2.0,6.0,84,0.00,,,0.00,weatherlink.com 1.10,2013-09-17 04:55:00,
2013-09-17 01:10:00,44.2,40.0,30.27,NNE,21,3.0,5.0,85,0.00,,,0.00,weatherlink.com 1.10,2013-09-17 05:10:00,
2013-09-17 01:25:00,43.6,40.0,30.28,NE,42,2.0,5.0,87,0.00,,,0.00,weatherlink.com 1.10,2013-09-17 05:25:00,
2013-09-17 01:40:00,43.1,40.0,30.28,NNW,344,4.0,6.0,88,0.00,,,0.00,weatherlink.com 1.10,2013-09-17 05:40:00,
2013-09-17 01:56:00,42.8,40.0,30.29,NE,41,3.0,7.0,89,0.00,,,0.00,weatherlink.com 1.10,2013-09-17 05:56:00,
2013-09-17 02:11:00,42.6,39.0,30.29,NE,35,2.0,3.0,88,0.00,,,0.00,weatherlink.com 1.10,2013-09-17 06:11:00,
2013-09-17 02:26:00,42.3,39.0,30.29,NE,35,0.0,3.0,88,0.00,,,0.00,weatherlink.com 1.10,2013-09-17 06:26:00,
2013-09-17 02:41:00,41.9,39.0,30.29,NNE,30,3.0,4.0,89,0.00,,,0.00,weatherlink.com 1.10,2013-09-17 06:41:00,
2013-09-17 02:56:00,41.4,39.0,30.29,NE,54,0.0,4.0,90,0.00,,,0.00,weatherlink.com 1.10,2013-09-17 06:56:00,
2013-09-17 03:11:00,41.1,38.0,30.30,NE,50,0.0,4.0,90,0.00,,,0.00,weatherlink.com 1.10,2013-09-17 07:11:00,
2013-09-17 03:26:00,40.9,39.0,30.30,NE,50,0.0,2.0,91,0.00,,,0.00,weatherlink.com 1.10,2013-09-17 07:26:00,
2013-09-17 03:41:00,40.9,39.0,30.31,NE,51,2.0,3.0,91,0.00,,,0.00,weatherlink.com 1.10,2013-09-17 07:41:00,
2013-09-17 03:56:00,40.9,39.0,30.31,ENE,58,3.0,5.0,91,0.00,,,0.00,weatherlink.com 1.10,2013-09-17 07:56:00,
2013-09-17 04:11:00,40.8,38.0,30.31,NE,51,3.0,4.0,91,0.00,,,0.00,weatherlink.com 1.10,2013-09-17 08:11:00,
2013-09-17 04:26:00,40.7,39.0,30.30,East,81,2.0,5.0,92,0.00,,,0.00,weatherlink.com 1.10,2013-09-17 08:26:00,
2013-09-17 04:41:00,40.8,38.0,30.31,NE,45,3.0,4.0,91,0.00,,,0.00,weatherlink.com 1.10,2013-09-17 08:41:00,
2013-09-17 04:56:00,41.1,38.0,30.31,NNE,28,1.0,4.0,90,0.00,,,0.00,weatherlink.com 1.10,2013-09-17 08:56:00,
2013-09-17 05:11:00,40.9,38.0,30.32,NNE,28,0.0,2.0,90,0.00,,,0.00,weatherlink.com 1.10,2013-09-17 09:11:00,
2013-09-17 05:26:00,40.4,38.0,30.32,NNE,28,0.0,2.0,90,0.00,,,0.00,weatherlink.com 1.10,2013-09-17 09:26:00,
2013-09-17 05:41:00,39.7,37.0,30.33,NNE,28,0.0,2.0,91,0.00,,,0.00,weatherlink.com 1.10,2013-09-17 09:41:00,
2013-09-17 05:56:00,39.4,37.0,30.34,ENE,65,0.0,4.0,92,0.00,,,0.00,weatherlink.com 1.10,2013-09-17 09:56:00,
2013-09-17 06:11:00,39.4,37.0,30.35,ENE,76,0.0,2.0,92,0.00,,,0.00,weatherlink.com 1.10,2013-09-17 10:11:00,
2013-09-17 06:26:00,39.3,37.0,30.35,ENE,76,0.0,1.0,92,0.00,,,0.00,weatherlink.com 1.10,2013-09-17 10:26:00,
2013-09-17 06:41:00,39.3,37.0,30.36,ENE,76,1.0,2.0,92,0.00,,,0.00,weatherlink.com 1.10,2013-09-17 10:41:00,
2013-09-17 06:56:00,39.2,37.0,30.37,ENE,76,0.0,2.0,92,0.00,,,0.00,weatherlink.com 1.10,2013-09-17 10:56:00,
2013-09-17 07:11:00,39.3,38.0,30.38,ESE,108,0.0,2.0,93,0.00,,,0.00,weatherlink.com 1.10,2013-09-17 11:11:00,
2013-09-17 07:26:00,39.6,38.0,30.38,NNE,25,2.0,3.0,93,0.00,,,0.00,weatherlink.com 1.10,2013-09-17 11:26:00,
2013-09-17 07:41:00,40.1,38.0,30.39,NE,45,0.0,5.0,93,0.00,,,0.00,weatherlink.com 1.10,2013-09-17 11:41:00,
2013-09-17 07:56:00,40.9,39.0,30.39,ENE,78,0.0,5.0,93,0.00,,,0.00,weatherlink.com 1.10,2013-09-17 11:56:00,
2013-09-17 08:12:00,42.4,40.0,30.39,East,83,3.0,8.0,91,0.00,,,0.00,weatherlink.com 1.10,2013-09-17 12:12:00,
2013-09-17 08:27:00,43.6,41.0,30.40,NE,40,2.0,9.0,89,0.00,,,0.00,weatherlink.com 1.10,2013-09-17 12:27:00,
2013-09-17 08:42:00,44.3,40.0,30.41,NE,44,3.0,9.0,86,0.00,,,0.00,weatherlink.com 1.10,2013-09-17 12:42:00,
2013-09-17 08:57:00,45.5,41.0,30.42,ENE,57,5.0,10.0,85,0.00,,,0.00,weatherlink.com 1.10,2013-09-17 12:57:00,
2013-09-17 09:12:00,46.4,42.0,30.42,NNE,22,5.0,9.0,83,0.00,,,0.00,weatherlink.com 1.10,2013-09-17 13:12:00,
2013-09-17 09:27:00,47.3,42.0,30.42,ENE,59,4.0,7.0,82,0.00,,,0.00,weatherlink.com 1.10,2013-09-17 13:27:00,
2013-09-17 09:42:00,49.1,43.0,30.42,North,5,2.0,13.0,78,0.00,,,0.00,weatherlink.com 1.10,2013-09-17 13:42:00,
2013-09-17 09:57:00,49.7,42.0,30.42,NE,43,8.0,13.0,75,0.00,,,0.00,weatherlink.com 1.10,2013-09-17 13:57:00,
2013-09-17 10:12:00,50.6,42.0,30.42,NE,36,6.0,13.0,73,0.00,,,0.00,weatherlink.com 1.10,2013-09-17 14:12:00,
2013-09-17 10:27:00,52.2,44.0,30.42,NE,44,5.0,8.0,73,0.00,,,0.00,weatherlink.com 1.10,2013-09-17 14:27:00,
2013-09-17 10:42:00,53.0,44.0,30.42,ENE,65,5.0,10.0,72,0.00,,,0.00,weatherlink.com 1.10,2013-09-17 14:42:00,
2013-09-17 10:57:00,53.3,43.0,30.41,ENE,76,3.0,10.0,68,0.00,,,0.00,weatherlink.com 1.10,2013-09-17 14:57:00,
2013-09-17 11:12:00,54.1,44.0,30.41,NE,40,3.0,10.0,68,0.00,,,0.00,weatherlink.com 1.10,2013-09-17 15:12:00,
2013-09-17 11:27:00,55.1,45.0,30.41,East,88,9.0,10.0,69,0.00,,,0.00,weatherlink.com 1.10,2013-09-17 15:27:00,
2013-09-17 11:42:00,55.5,44.0,30.40,NNE,20,11.0,11.0,65,0.00,,,0.00,weatherlink.com 1.10,2013-09-17 15:42:00,
2013-09-17 11:57:00,56.3,44.0,30.40,NNE,27,2.0,9.0,63,0.00,,,0.00,weatherlink.com 1.10,2013-09-17 15:57:00,
2013-09-17 12:13:00,56.7,44.0,30.39,North,11,4.0,10.0,62,0.00,,,0.00,weatherlink.com 1.10,2013-09-17 16:13:00,
2013-09-17 12:28:00,57.0,44.0,30.39,SE,131,0.0,9.0,63,0.00,,,0.00,weatherlink.com 1.10,2013-09-17 16:28:00,
2013-09-17 12:43:00,57.7,45.0,30.39,NNE,24,4.0,11.0,63,0.00,,,0.00,weatherlink.com 1.10,2013-09-17 16:43:00,
2013-09-17 12:58:00,57.8,45.0,30.38,NE,36,5.0,12.0,63,0.00,,,0.00,weatherlink.com 1.10,2013-09-17 16:58:00,
2013-09-17 13:13:00,58.8,45.0,30.38,ENE,59,1.0,10.0,60,0.00,,,0.00,weatherlink.com 1.10,2013-09-17 17:13:00,
2013-09-17 13:43:00,59.7,45.0,30.37,ESE,122,4.0,10.0,59,0.00,,,0.00,weatherlink.com 1.10,2013-09-17 17:43:00,
2013-09-17 13:58:00,60.5,45.0,30.36,NE,46,1.0,8.0,57,0.00,,,0.00,weatherlink.com 1.10,2013-09-17 17:58:00,
2013-09-17 14:13:00,61.2,47.0,30.36,NNE,21,3.0,10.0,61,0.00,,,0.00,weatherlink.com 1.10,2013-09-17 18:13:00,
2013-09-17 14:28:00,60.9,44.0,30.35,NNW,346,6.0,8.0,55,0.00,,,0.00,weatherlink.com 1.10,2013-09-17 18:28:00,
2013-09-17 14:43:00,61.5,46.0,30.34,North,5,1.0,10.0,57,0.00,,,0.00,weatherlink.com 1.10,2013-09-17 18:43:00,
2013-09-17 14:58:00,61.1,45.0,30.34,NNW,348,4.0,9.0,56,0.00,,,0.00,weatherlink.com 1.10,2013-09-17 18:58:00,
2013-09-17 15:13:00,61.6,46.0,30.33,NE,37,5.0,10.0,58,0.00,,,0.00,weatherlink.com 1.10,2013-09-17 19:13:00,
2013-09-17 15:28:00,61.6,45.0,30.32,NNE,30,4.0,11.0,55,0.00,,,0.00,weatherlink.com 1.10,2013-09-17 19:28:00,
2013-09-17 15:43:00,61.5,45.0,30.32,NE,36,4.0,8.0,55,0.00,,,0.00,weatherlink.com 1.10,2013-09-17 19:43:00,
2013-09-17 15:58:00,61.3,45.0,30.32,NNE,33,1.0,7.0,56,0.00,,,0.00,weatherlink.com 1.10,2013-09-17 19:58:00,
2013-09-17 16:13:00,62.4,46.0,30.31,NE,42,5.0,6.0,55,0.00,,,0.00,weatherlink.com 1.10,2013-09-17 20:13:00,
2013-09-17 16:28:00,61.6,46.0,30.31,NNW,348,5.0,8.0,57,0.00,,,0.00,weatherlink.com 1.10,2013-09-17 20:28:00,
2013-09-17 16:43:00,62.1,46.0,30.31,NE,41,0.0,8.0,57,0.00,,,0.00,weatherlink.com 1.10,2013-09-17 20:43:00,
2013-09-17 16:58:00,61.6,46.0,30.31,NNE,12,5.0,7.0,57,0.00,,,0.00,weatherlink.com 1.10,2013-09-17 20:58:00,
2013-09-17 17:13:00,61.5,46.0,30.31,NE,42,2.0,8.0,57,0.00,,,0.00,weatherlink.com 1.10,2013-09-17 21:13:00,
2013-09-17 17:28:00,61.4,47.0,30.31,North,355,2.0,5.0,60,0.00,,,0.00,weatherlink.com 1.10,2013-09-17 21:28:00,
2013-09-17 17:43:00,61.3,47.0,30.31,NNW,343,4.0,5.0,60,0.00,,,0.00,weatherlink.com 1.10,2013-09-17 21:43:00,
2013-09-17 17:58:00,60.2,47.0,30.31,NNE,17,4.0,7.0,62,0.00,,,0.00,weatherlink.com 1.10,2013-09-17 21:58:00,
2013-09-17 18:13:00,59.8,47.0,30.31,NE,40,5.0,5.0,64,0.00,,,0.00,weatherlink.com 1.10,2013-09-17 22:13:00,
2013-09-17 18:28:00,58.7,47.0,30.31,NE,50,1.0,4.0,65,0.00,,,0.00,weatherlink.com 1.10,2013-09-17 22:28:00,
2013-09-17 18:43:00,57.4,47.0,30.31,NE,55,0.0,3.0,68,0.00,,,0.00,weatherlink.com 1.10,2013-09-17 22:43:00,
2013-09-17 18:58:00,55.8,47.0,30.30,ENE,65,1.0,4.0,71,0.00,,,0.00,weatherlink.com 1.10,2013-09-17 22:58:00,
2013-09-17 19:13:00,54.5,46.0,30.30,NE,51,0.0,2.0,73,0.00,,,0.00,weatherlink.com 1.10,2013-09-17 23:13:00,
2013-09-17 19:28:00,53.2,46.0,30.31,NE,51,0.0,3.0,76,0.00,,,0.00,weatherlink.com 1.10,2013-09-17 23:28:00,
2013-09-17 19:43:00,52.4,46.0,30.31,NE,51,0.0,1.0,79,0.00,,,0.00,weatherlink.com 1.10,2013-09-17 23:43:00,
2013-09-17 19:58:00,51.5,46.0,30.31,NE,51,0.0,0.0,80,0.00,,,0.00,weatherlink.com 1.10,2013-09-17 23:58:00,
2013-09-17 20:13:00,50.4,45.0,30.32,NE,51,2.0,3.0,82,0.00,,,0.00,weatherlink.com 1.10,2013-09-18 00:13:00,
2013-09-17 20:28:00,49.9,45.0,30.32,NE,51,0.0,4.0,84,0.00,,,0.00,weatherlink.com 1.10,2013-09-18 00:28:00,
2013-09-17 20:43:00,49.4,45.0,30.32,NE,51,0.0,2.0,85,0.00,,,0.00,weatherlink.com 1.10,2013-09-18 00:43:00,
2013-09-17 20:58:00,49.2,45.0,30.31,NE,51,0.0,4.0,85,0.00,,,0.00,weatherlink.com 1.10,2013-09-18 00:58:00,
2013-09-17 21:13:00,49.1,45.0,30.32,NE,51,0.0,1.0,85,0.00,,,0.00,weatherlink.com 1.10,2013-09-18 01:13:00,
2013-09-17 21:28:00,49.0,45.0,30.32,NE,51,1.0,2.0,85,0.00,,,0.00,weatherlink.com 1.10,2013-09-18 01:28:00,
2013-09-17 21:43:00,48.7,44.0,30.32,NE,51,0.0,2.0,84,0.00,,,0.00,weatherlink.com 1.10,2013-09-18 01:43:00,
2013-09-17 21:58:00,48.7,44.0,30.32,NE,51,0.0,4.0,84,0.00,,,0.00,weatherlink.com 1.10,2013-09-18 01:58:00,
2013-09-17 22:13:00,48.8,44.0,30.32,NE,51,0.0,3.0,84,0.00,,,0.00,weatherlink.com 1.10,2013-09-18 02:13:00,
2013-09-17 22:28:00,48.9,44.0,30.32,NE,51,0.0,3.0,84,0.00,,,0.00,weatherlink.com 1.10,2013-09-18 02:28:00,
2013-09-17 22:43:00,48.7,44.0,30.32,NE,51,0.0,3.0,83,0.00,,,0.00,weatherlink.com 1.10,2013-09-18 02:43:00,
2013-09-17 22:58:00,48.6,43.0,30.32,NE,51,0.0,3.0,82,0.00,,,0.00,weatherlink.com 1.10,2013-09-18 02:58:00,
2013-09-17 23:13:00,48.0,43.0,30.32,NE,51,0.0,0.0,84,0.00,,,0.00,weatherlink.com 1.10,2013-09-18 03:13:00,
2013-09-17 23:28:00,47.2,43.0,30.32,NE,51,0.0,0.0,85,0.00,,,0.00,weatherlink.com 1.10,2013-09-18 03:28:00,
2013-09-17 23:43:00,46.3,43.0,30.32,NE,51,0.0,0.0,87,0.00,,,0.00,weatherlink.com 1.10,2013-09-18 03:43:00,
2013-09-17 23:58:00,45.7,43.0,30.32,NE,51,0.0,0.0,89,0.00,,,0.00,weatherlink.com 1.10,2013-09-18 03:58:00,